HAZ2227 ZSHC-ZGHA

Flight info

Callsign HAZ2227
Flight time 1h 21m
Altitude 32100
Route ABVIL H24 ISNIR H161 P366 H165 DALEP
Aircraft A321/M-SDE3FGHIRWY/LB1D1

Departure

Time 2026-04-23 12:07
Airport Hangzhou Xiaoshan International Airport (ZSHC)

Arrival

Time 2026-04-23 13:28
Airport Changsha Huanghua International Airport (ZGHA)
Time Latitude Longitude Altitude Speed Heading
2026-04-23 11:58 30.24008 120.42495 32 ft 0 kts 222°
2026-04-23 12:00 30.24019 120.42507 32 ft 4 kts 233°
2026-04-23 12:00 30.24029 120.42533 32 ft 4 kts 276°
2026-04-23 12:00 30.24019 120.42558 31 ft 4 kts 323°
2026-04-23 12:00 30.24008 120.42566 31 ft 0 kts 333°
2026-04-23 12:02 30.24016 120.42562 32 ft 5 kts 333°
2026-04-23 12:02 30.24084 120.42522 31 ft 17 kts 333°
2026-04-23 12:02 30.24205 120.42470 32 ft 18 kts 337°
2026-04-23 12:03 30.24304 120.42398 32 ft 16 kts 296°
2026-04-23 12:03 30.24264 120.42268 30 ft 20 kts 243°
2026-04-23 12:03 30.24187 120.42091 32 ft 30 kts 243°
2026-04-23 12:03 30.24097 120.41890 31 ft 25 kts 243°
2026-04-23 12:04 30.24019 120.41712 31 ft 24 kts 243°
2026-04-23 12:04 30.23943 120.41540 31 ft 24 kts 242°
2026-04-23 12:04 30.23867 120.41370 31 ft 23 kts 243°
2026-04-23 12:04 30.23794 120.41205 31 ft 23 kts 243°
2026-04-23 12:05 30.23721 120.41040 32 ft 23 kts 243°
2026-04-23 12:05 30.23707 120.40916 32 ft 14 kts 314°
2026-04-23 12:05 30.23786 120.40869 34 ft 12 kts 342°
2026-04-23 12:05 30.23850 120.40899 34 ft 9 kts 58°
2026-04-23 12:06 30.23870 120.40941 34 ft 10 kts 63°
2026-04-23 12:06 30.24009 120.41255 32 ft 80 kts 63°
2026-04-23 12:06 30.24855 120.43166 123 ft 170 kts 62°
2026-04-23 12:07 30.25406 120.44375 744 ft 169 kts 62°
2026-04-23 12:07 30.25943 120.45581 1332 ft 169 kts 62°
2026-04-23 12:07 30.26479 120.46798 1830 ft 174 kts 62°
2026-04-23 12:07 30.27059 120.48114 2043 ft 194 kts 62°
2026-04-23 12:08 30.27702 120.49575 2308 ft 210 kts 61°
2026-04-23 12:08 30.28369 120.51091 2848 ft 212 kts 61°
2026-04-23 12:08 30.29038 120.52610 3406 ft 212 kts 61°
2026-04-23 12:08 30.29700 120.54113 3942 ft 213 kts 60°
2026-04-23 12:09 30.30374 120.55638 4503 ft 213 kts 61°
2026-04-23 12:09 30.31050 120.57165 5052 ft 213 kts 61°
2026-04-23 12:09 30.31726 120.58692 5581 ft 214 kts 61°
2026-04-23 12:09 30.32455 120.60189 6115 ft 213 kts 51°
2026-04-23 12:10 30.33578 120.61299 6623 ft 214 kts 28°
2026-04-23 12:10 30.35002 120.61793 7096 ft 217 kts
2026-04-23 12:10 30.36508 120.61563 7562 ft 223 kts 342°
2026-04-23 12:10 30.37840 120.60613 7880 ft 230 kts 318°
2026-04-23 12:11 30.38704 120.59030 8255 ft 237 kts 291°
2026-04-23 12:11 30.38897 120.57134 8753 ft 242 kts 265°
2026-04-23 12:11 30.38357 120.55280 9220 ft 246 kts 244°
2026-04-23 12:11 30.37565 120.53526 9718 ft 245 kts 244°
2026-04-23 12:12 30.36777 120.51775 10228 ft 244 kts 244°
2026-04-23 12:12 30.35995 120.50034 10735 ft 243 kts 244°
2026-04-23 12:12 30.35218 120.48304 11251 ft 241 kts 244°
2026-04-23 12:12 30.34452 120.46589 11733 ft 241 kts 244°
2026-04-23 12:13 30.33656 120.44796 11855 ft 260 kts 244°
2026-04-23 12:13 30.32816 120.42901 12209 ft 267 kts 244°
2026-04-23 12:13 30.31942 120.40916 12406 ft 289 kts 244°
2026-04-23 12:13 30.30996 120.38757 12569 ft 312 kts 244°
2026-04-23 12:14 30.29979 120.36440 12698 ft 334 kts 244°
2026-04-23 12:14 30.28886 120.33968 12827 ft 355 kts 244°
2026-04-23 12:14 30.27733 120.31376 13176 ft 367 kts 244°
2026-04-23 12:14 30.26556 120.28741 13765 ft 371 kts 244°
2026-04-23 12:15 30.25370 120.26084 14411 ft 373 kts 244°
2026-04-23 12:15 30.24181 120.23416 15058 ft 374 kts 244°
2026-04-23 12:15 30.22985 120.20734 15691 ft 375 kts 244°
2026-04-23 12:15 30.21785 120.18050 16304 ft 376 kts 244°
2026-04-23 12:16 30.20584 120.15362 16908 ft 377 kts 244°
2026-04-23 12:16 30.19377 120.12661 17482 ft 378 kts 244°
2026-04-23 12:16 30.18173 120.09955 18048 ft 380 kts 244°
2026-04-23 12:16 30.16961 120.07232 18597 ft 381 kts 244°
2026-04-23 12:17 30.15747 120.04515 19153 ft 382 kts 244°
2026-04-23 12:17 30.14523 120.01783 19697 ft 383 kts 244°
2026-04-23 12:17 30.13296 119.99048 20233 ft 383 kts 244°
2026-04-23 12:17 30.12068 119.96318 20780 ft 384 kts 244°
2026-04-23 12:18 30.10837 119.93588 21299 ft 384 kts 244°
2026-04-23 12:18 30.09601 119.90850 21791 ft 384 kts 244°
2026-04-23 12:18 30.08364 119.88108 22260 ft 385 kts 244°
2026-04-23 12:18 30.07126 119.85358 22714 ft 386 kts 244°
2026-04-23 12:19 30.05888 119.82610 23159 ft 386 kts 244°
2026-04-23 12:19 30.04651 119.79859 23603 ft 387 kts 244°
2026-04-23 12:19 30.03238 119.77206 24056 ft 390 kts 236°
2026-04-23 12:19 30.01419 119.74867 24466 ft 393 kts 230°
2026-04-23 12:20 29.99492 119.72622 24823 ft 394 kts 230°
2026-04-23 12:20 29.97558 119.70369 25158 ft 395 kts 230°
2026-04-23 12:20 29.95624 119.68111 25510 ft 396 kts 229°
2026-04-23 12:20 29.93680 119.65842 25898 ft 401 kts 228°
2026-04-23 12:21 29.91716 119.63558 26390 ft 401 kts 229°
2026-04-23 12:21 29.89754 119.61270 26755 ft 402 kts 229°
2026-04-23 12:21 29.87789 119.58974 27083 ft 403 kts 229°
2026-04-23 12:21 29.85825 119.56682 27487 ft 400 kts 229°
2026-04-23 12:22 29.83874 119.54405 27929 ft 399 kts 230°
2026-04-23 12:22 29.82590 119.52907 28266 ft 395 kts 230°
2026-04-23 12:22 29.79999 119.49887 28731 ft 396 kts 230°
2026-04-23 12:22 29.78072 119.47643 29182 ft 392 kts 230°
2026-04-23 12:23 29.76803 119.46169 29447 ft 390 kts 230°
2026-04-23 12:23 29.74254 119.43211 29973 ft 388 kts 230°
2026-04-23 12:23 29.72996 119.41756 30230 ft 386 kts 229°
2026-04-23 12:23 29.70466 119.38829 30764 ft 383 kts 230°
2026-04-23 12:24 29.69227 119.37389 31025 ft 382 kts 230°
2026-04-23 12:24 29.67362 119.35221 31460 ft 380 kts 231°
2026-04-23 12:24 29.65535 119.33046 31897 ft 375 kts 234°
2026-04-23 12:24 29.64041 119.30626 32087 ft 368 kts 243°
2026-04-23 12:25 29.62039 119.25321 32129 ft 360 kts 250°
2026-04-23 12:25 29.60214 119.19984 32128 ft 359 kts 248°
2026-04-23 12:26 29.58328 119.14683 32129 ft 358 kts 249°
2026-04-23 12:26 29.56446 119.09373 32128 ft 359 kts 249°
2026-04-23 12:27 29.54579 119.04050 32121 ft 359 kts 249°
2026-04-23 12:27 29.52718 118.98730 32123 ft 359 kts 249°
2026-04-23 12:28 29.50877 118.93448 32116 ft 359 kts 249°
2026-04-23 12:28 29.49670 118.87908 32108 ft 360 kts 260°
2026-04-23 12:29 29.49035 118.82174 32108 ft 360 kts 260°
2026-04-23 12:29 29.48403 118.76508 32105 ft 360 kts 260°
2026-04-23 12:30 29.47757 118.70801 32117 ft 360 kts 260°
2026-04-23 12:30 29.47100 118.65099 32116 ft 360 kts 260°
2026-04-23 12:31 29.46451 118.59401 32123 ft 361 kts 259°
2026-04-23 12:31 29.45802 118.53713 32121 ft 360 kts 259°
2026-04-23 12:32 29.44698 118.48151 32125 ft 358 kts 248°
2026-04-23 12:32 29.42817 118.42869 32119 ft 356 kts 248°
2026-04-23 12:33 29.40949 118.37600 32123 ft 357 kts 248°
2026-04-23 12:33 29.39075 118.32317 32116 ft 357 kts 248°
2026-04-23 12:34 29.37191 118.27039 32118 ft 358 kts 248°
2026-04-23 12:34 29.35302 118.21762 32106 ft 358 kts 248°
2026-04-23 12:35 29.33416 118.16479 32107 ft 359 kts 248°
2026-04-23 12:35 29.31526 118.11195 32107 ft 358 kts 248°
2026-04-23 12:36 29.29643 118.05917 32115 ft 357 kts 248°
2026-04-23 12:36 29.27754 118.00645 32120 ft 359 kts 248°
2026-04-23 12:37 29.25848 117.95355 32130 ft 359 kts 248°
2026-04-23 12:37 29.23944 117.90065 32127 ft 360 kts 248°
2026-04-23 12:38 29.22042 117.84771 32119 ft 360 kts 248°
2026-04-23 12:38 29.20139 117.79484 32115 ft 359 kts 248°
2026-04-23 12:39 29.18235 117.74198 32128 ft 360 kts 248°
2026-04-23 12:39 29.16325 117.68936 32120 ft 360 kts 248°
2026-04-23 12:40 29.14398 117.63635 32122 ft 361 kts 248°
2026-04-23 12:40 29.12476 117.58326 32125 ft 362 kts 248°
2026-04-23 12:41 29.10551 117.53013 32131 ft 362 kts 248°
2026-04-23 12:41 29.08624 117.47705 32135 ft 362 kts 248°
2026-04-23 12:42 29.06726 117.42380 32139 ft 362 kts 249°
2026-04-23 12:42 29.04826 117.37046 32141 ft 362 kts 248°
2026-04-23 12:43 29.02912 117.31723 32143 ft 362 kts 248°
2026-04-23 12:43 29.00993 117.26398 32142 ft 362 kts 248°
2026-04-23 12:44 28.99103 117.21060 32144 ft 363 kts 249°
2026-04-23 12:44 28.97227 117.15713 32142 ft 363 kts 249°
2026-04-23 12:45 28.95337 117.10374 32142 ft 362 kts 249°
2026-04-23 12:45 28.93461 117.05085 32142 ft 362 kts 249°
2026-04-23 12:46 28.91569 116.99758 32140 ft 362 kts 249°
2026-04-23 12:46 28.89676 116.94429 32137 ft 362 kts 248°
2026-04-23 12:47 28.87779 116.89106 32138 ft 362 kts 249°
2026-04-23 12:47 28.85882 116.83794 32147 ft 361 kts 249°
2026-04-23 12:48 28.83985 116.78486 32136 ft 361 kts 248°
2026-04-23 12:48 28.82089 116.73180 32133 ft 361 kts 249°
2026-04-23 12:49 28.80191 116.67874 32132 ft 361 kts 248°
2026-04-23 12:49 28.78290 116.62572 32131 ft 361 kts 248°
2026-04-23 12:50 28.76380 116.57277 32131 ft 361 kts 248°
2026-04-23 12:50 28.74475 116.51990 32133 ft 361 kts 248°
2026-04-23 12:51 28.72571 116.46702 32128 ft 361 kts 248°
2026-04-23 12:51 28.70679 116.41441 32124 ft 361 kts 248°
2026-04-23 12:52 28.68774 116.36153 32132 ft 361 kts 248°
2026-04-23 12:52 28.66857 116.30862 32133 ft 361 kts 248°
2026-04-23 12:53 28.64939 116.25580 32137 ft 361 kts 248°
2026-04-23 12:53 28.63022 116.20292 32134 ft 361 kts 248°
2026-04-23 12:54 28.61105 116.15008 32139 ft 361 kts 248°
2026-04-23 12:54 28.59178 116.09722 32132 ft 362 kts 248°
2026-04-23 12:55 28.57249 116.04438 32135 ft 361 kts 248°
2026-04-23 12:55 28.55320 115.99161 32148 ft 361 kts 248°
2026-04-23 12:56 28.53423 115.93872 32138 ft 361 kts 252°
2026-04-23 12:56 28.52450 115.88274 32146 ft 361 kts 258°
2026-04-23 12:57 28.52028 115.85457 32002 ft 362 kts 258°
2026-04-23 12:57 28.51598 115.82628 31749 ft 363 kts 258°
2026-04-23 12:57 28.51159 115.79804 31499 ft 363 kts 258°
2026-04-23 12:57 28.50716 115.76971 31250 ft 364 kts 258°
2026-04-23 12:58 28.50276 115.74137 30938 ft 366 kts 258°
2026-04-23 12:58 28.49830 115.71272 30543 ft 367 kts 258°
2026-04-23 12:58 28.49384 115.68411 30141 ft 369 kts 259°
2026-04-23 12:58 28.48940 115.65534 29743 ft 371 kts 258°
2026-04-23 12:59 28.48495 115.62635 29340 ft 373 kts 259°
2026-04-23 12:59 28.48073 115.59711 28936 ft 376 kts 259°
2026-04-23 12:59 28.47670 115.56764 28535 ft 379 kts 259°
2026-04-23 12:59 28.47272 115.53793 28130 ft 382 kts 259°
2026-04-23 13:00 28.46868 115.50803 27738 ft 385 kts 259°
2026-04-23 13:00 28.46457 115.47784 27600 ft 387 kts 259°
2026-04-23 13:00 28.46037 115.44751 27637 ft 390 kts 259°
2026-04-23 13:00 28.45611 115.41707 27636 ft 390 kts 259°
2026-04-23 13:01 28.45184 115.38664 27636 ft 390 kts 259°
2026-04-23 13:01 28.44758 115.35621 27637 ft 391 kts 259°
2026-04-23 13:01 28.44328 115.32567 27636 ft 391 kts 259°
2026-04-23 13:01 28.43901 115.29517 27636 ft 391 kts 259°
2026-04-23 13:02 28.43474 115.26463 27637 ft 391 kts 259°
2026-04-23 13:02 28.43046 115.23413 27633 ft 391 kts 259°
2026-04-23 13:02 28.42616 115.20364 27635 ft 391 kts 259°
2026-04-23 13:02 28.42185 115.17312 27635 ft 391 kts 259°
2026-04-23 13:03 28.41750 115.14256 27636 ft 391 kts 259°
2026-04-23 13:03 28.41314 115.11207 27636 ft 391 kts 259°
2026-04-23 13:03 28.40881 115.08175 27635 ft 391 kts 259°
2026-04-23 13:03 28.40445 115.05132 27636 ft 391 kts 259°
2026-04-23 13:04 28.40006 115.02087 27635 ft 391 kts 259°
2026-04-23 13:04 28.39571 114.99045 27637 ft 390 kts 259°
2026-04-23 13:04 28.39136 114.96006 27634 ft 390 kts 259°
2026-04-23 13:04 28.38697 114.92953 27637 ft 390 kts 259°
2026-04-23 13:05 28.38259 114.89909 27637 ft 391 kts 259°
2026-04-23 13:05 28.37825 114.86899 27634 ft 391 kts 259°
2026-04-23 13:05 28.37386 114.83856 27640 ft 390 kts 259°
2026-04-23 13:05 28.36946 114.80818 27633 ft 390 kts 259°
2026-04-23 13:06 28.36064 114.74743 27634 ft 390 kts 259°
2026-04-23 13:06 28.35623 114.71711 27634 ft 390 kts 259°
2026-04-23 13:06 28.35181 114.68677 27635 ft 389 kts 259°
2026-04-23 13:07 28.34738 114.65645 27636 ft 389 kts 259°
2026-04-23 13:07 28.34297 114.62613 27450 ft 390 kts 259°
2026-04-23 13:07 28.33857 114.59572 27201 ft 390 kts 259°
2026-04-23 13:07 28.33418 114.56528 26953 ft 391 kts 259°
2026-04-23 13:08 28.32973 114.53480 26705 ft 393 kts 259°
2026-04-23 13:08 28.32521 114.50410 26453 ft 395 kts 259°
2026-04-23 13:08 28.32066 114.47326 26202 ft 397 kts 259°
2026-04-23 13:08 28.31764 114.45282 26033 ft 399 kts 259°
2026-04-23 13:09 28.31146 114.41108 25698 ft 402 kts 259°
2026-04-23 13:09 28.30731 114.37958 25446 ft 404 kts 263°
2026-04-23 13:09 28.30648 114.34766 25194 ft 407 kts 269°
2026-04-23 13:09 28.30754 114.31553 24943 ft 410 kts 269°
2026-04-23 13:10 28.30859 114.28309 24689 ft 412 kts 269°
2026-04-23 13:10 28.30962 114.25051 24438 ft 414 kts 269°
2026-04-23 13:10 28.31066 114.21777 24187 ft 416 kts 270°
2026-04-23 13:10 28.31137 114.19599 24020 ft 418 kts 270°
2026-04-23 13:11 28.31278 114.15176 23682 ft 420 kts 270°
2026-04-23 13:11 28.31379 114.11850 23426 ft 422 kts 269°
2026-04-23 13:11 28.31473 114.08524 23170 ft 423 kts 268°
2026-04-23 13:11 28.31387 114.06322 22999 ft 420 kts 263°
2026-04-23 13:12 28.30663 114.02010 21891 ft 414 kts 256°
2026-04-23 13:12 28.30208 113.99915 21358 ft 411 kts 256°
2026-04-23 13:12 28.29528 113.96781 20578 ft 407 kts 257°
2026-04-23 13:12 28.28858 113.93677 19799 ft 403 kts 257°
2026-04-23 13:13 28.28199 113.90608 19045 ft 398 kts 257°
2026-04-23 13:13 28.27550 113.87573 18327 ft 394 kts 257°
2026-04-23 13:13 28.26908 113.84573 17640 ft 389 kts 257°
2026-04-23 13:13 28.26274 113.81611 16960 ft 383 kts 257°
2026-04-23 13:14 28.25461 113.78750 16313 ft 381 kts 248°
2026-04-23 13:14 28.24108 113.76188 15680 ft 381 kts 235°
2026-04-23 13:14 28.22245 113.74046 15049 ft 384 kts 222°
2026-04-23 13:14 28.19957 113.72434 14364 ft 391 kts 209°
2026-04-23 13:15 28.17362 113.71471 13704 ft 396 kts 195°
2026-04-23 13:15 28.14608 113.71149 13037 ft 399 kts 187°
2026-04-23 13:15 28.11844 113.70949 12371 ft 397 kts 187°
2026-04-23 13:15 28.09091 113.70734 11687 ft 396 kts 187°
2026-04-23 13:16 28.06396 113.70315 11287 ft 382 kts 199°
2026-04-23 13:16 28.04081 113.69066 11159 ft 358 kts 218°
2026-04-23 13:16 28.02345 113.67174 11034 ft 337 kts 236°
2026-04-23 13:16 28.01270 113.64918 10903 ft 318 kts 253°
2026-04-23 13:17 28.00843 113.62542 10782 ft 301 kts 269°
2026-04-23 13:17 28.00743 113.60221 10626 ft 291 kts 269°
2026-04-23 13:17 28.00639 113.57957 10409 ft 284 kts 269°
2026-04-23 13:17 28.00533 113.55731 10345 ft 284 kts 269°
2026-04-23 13:18 28.00426 113.53501 10201 ft 284 kts 269°
2026-04-23 13:18 28.00188 113.51289 10086 ft 285 kts 258°
2026-04-23 13:18 27.99511 113.49164 9899 ft 288 kts 250°
2026-04-23 13:18 27.98743 113.47037 9307 ft 294 kts 250°
2026-04-23 13:19 27.97984 113.44919 8826 ft 287 kts 250°
2026-04-23 13:19 27.97238 113.42842 8073 ft 282 kts 250°
2026-04-23 13:19 27.96512 113.40821 7590 ft 269 kts 250°
2026-04-23 13:19 27.95840 113.38953 7436 ft 244 kts 250°
2026-04-23 13:20 27.95232 113.37250 7277 ft 228 kts 251°
2026-04-23 13:20 27.94867 113.35518 6631 ft 230 kts 266°
2026-04-23 13:20 27.94785 113.33715 5980 ft 229 kts 269°
2026-04-23 13:20 27.94707 113.31917 5319 ft 229 kts 269°
2026-04-23 13:21 27.94624 113.30118 4671 ft 229 kts 268°
2026-04-23 13:21 27.94543 113.28340 4418 ft 221 kts 269°
2026-04-23 13:21 27.94517 113.26610 4281 ft 215 kts 279°
2026-04-23 13:21 27.95050 113.25065 4047 ft 213 kts 307°
2026-04-23 13:22 27.96156 113.24009 3681 ft 204 kts 336°
2026-04-23 13:22 27.97455 113.23675 3624 ft 183 kts 358°
2026-04-23 13:22 27.98702 113.23603 3586 ft 174 kts 357°
2026-04-23 13:22 27.99839 113.23531 3549 ft 160 kts 358°
2026-04-23 13:23 28.00905 113.23466 3392 ft 150 kts 358°
2026-04-23 13:23 28.01930 113.23403 3205 ft 145 kts 359°
2026-04-23 13:23 28.02927 113.23342 3026 ft 143 kts 359°
2026-04-23 13:23 28.03924 113.23281 2839 ft 143 kts 358°
2026-04-23 13:24 28.04899 113.23102 2670 ft 143 kts 350°
2026-04-23 13:24 28.05849 113.23247 2488 ft 140 kts 21°
2026-04-23 13:24 28.06804 113.23324 2302 ft 142 kts 341°
2026-04-23 13:24 28.07737 113.22959 2084 ft 142 kts 359°
2026-04-23 13:25 28.08712 113.23025 1927 ft 141 kts 357°
2026-04-23 13:25 28.09274 113.22976 1820 ft 141 kts 357°
2026-04-23 13:25 28.10254 113.22904 1633 ft 141 kts 357°
2026-04-23 13:25 28.11230 113.22839 1446 ft 141 kts 357°
2026-04-23 13:26 28.12204 113.22777 1261 ft 140 kts 357°
2026-04-23 13:26 28.13180 113.22716 1076 ft 140 kts 357°
2026-04-23 13:26 28.14143 113.22656 888 ft 139 kts 357°
2026-04-23 13:26 28.15110 113.22597 700 ft 139 kts 357°
2026-04-23 13:27 28.16075 113.22538 517 ft 139 kts 358°
2026-04-23 13:27 28.17024 113.22480 356 ft 138 kts 357°
2026-04-23 13:27 28.17966 113.22418 219 ft 131 kts 358°
2026-04-23 13:27 28.18716 113.22381 221 ft 77 kts 356°
2026-04-23 13:28 28.19075 113.22348 217 ft 25 kts 341°
2026-04-23 13:28 28.19234 113.22271 220 ft 25 kts 332°
2026-04-23 13:28 28.19380 113.22174 214 ft 24 kts 329°
2026-04-23 13:28 28.19509 113.22135 214 ft 14 kts 356°
2026-04-23 13:29 28.19630 113.22128 215 ft 23 kts 357°
2026-04-23 13:29 28.19817 113.22116 215 ft 26 kts 356°
2026-04-23 13:29 28.19988 113.22106 219 ft 21 kts 357°
2026-04-23 13:29 28.20072 113.22072 215 ft 12 kts 291°
2026-04-23 13:30 28.20074 113.21979 215 ft 12 kts 266°
2026-04-23 13:30 28.20067 113.21856 215 ft 21 kts 266°
2026-04-23 13:30 28.20042 113.21730 214 ft 9 kts 216°
2026-04-23 13:30 28.19961 113.21725 214 ft 14 kts 177°
2026-04-23 13:31 28.19865 113.21730 214 ft 14 kts 177°
2026-04-23 13:31 28.19759 113.21736 214 ft 20 kts 176°
2026-04-23 13:31 28.19589 113.21748 215 ft 27 kts 176°
2026-04-23 13:31 28.19404 113.21759 215 ft 27 kts 177°
2026-04-23 13:32 28.19218 113.21770 215 ft 27 kts 176°
2026-04-23 13:32 28.19035 113.21782 215 ft 27 kts 177°
2026-04-23 13:32 28.18894 113.21756 215 ft 13 kts 236°
2026-04-23 13:32 28.18862 113.21668 214 ft 12 kts 230°
2026-04-23 13:33 28.18811 113.21615 214 ft 9 kts 222°
2026-04-23 13:33 28.18792 113.21594 214 ft 1 kts 222°
2026-04-23 13:33 28.18786 113.21588 220 ft 1 kts 222°
2026-04-23 13:33 28.18785 113.21587 214 ft 0 kts 222°